カタログに戻る

CZ-6A DEB

運用中SSO
NORAD 54411·DEBRIS·🇨🇳 China

打ち上げ Nov 11, 2022 から Taiyuan Satellite Launch Center

Loading…

次のパス (今後24時間)

TLE

最新Source: Space-Track

元期: Sep 14, 2026, 11:59 UTC

1 54411U 22151EK  26257.49956497  .00001258  00000-0  40260-3 0  9992
2 54411  98.7055 282.4057 0203506  48.2703 313.5685 14.30233752199672

AllMySatでCZ-6A DEBをリアルタイム追跡

Download on the App Store